Location: Nairn
(57.5833°N, 3.8667°W)
Time: 01:26:27
(UTC+00:00)

S-56A Canister/Altair - Visible Passes

Search period start: 03 October 2022 00:00
Search period end: 13 October 2022 00:00
Orbit: 637 x 2496 km, 38.9° (Epoch: 02 October)

Date Brightness Start Highest point End Pass type
(mag) Time Alt. Az. Time Alt. Az. Time Alt. Az.
03 Oct 10.6 01:37:21 11° SE 01:37:21 11° SE 01:37:45 10° SE visible
03 Oct 9.9 03:34:46 20° S 03:35:21 20° S 03:40:24 10° SE visible
03 Oct 10.1 05:34:31 10° SW 05:37:37 13° SSW 05:40:19 10° S visible
04 Oct 10.0 03:03:48 21° S 03:03:48 21° S 03:08:15 10° SE visible
04 Oct 10.0 05:01:13 11° SW 05:05:07 15° SSW 05:08:49 10° S visible
05 Oct 10.2 02:32:52 20° SSE 02:32:52 20° SSE 02:36:03 10° SE visible
05 Oct 10.0 04:30:17 16° SW 04:32:37 18° SSW 04:37:03 10° SSE visible
06 Oct 10.4 02:01:57 16° SE 02:01:57 16° SE 02:03:46 10° SE visible
06 Oct 10.0 03:59:22 20° SSW 04:00:02 20° SSW 04:05:10 10° SSE visible
07 Oct 10.7 01:31:05 11° SE 01:31:05 11° SE 01:31:26 10° SE visible
07 Oct 10.0 03:28:30 22° S 03:28:30 22° S 03:33:09 10° SSE visible
07 Oct 10.3 05:28:24 10° SW 05:29:22 10° SW 05:30:19 10° SSW visible
08 Oct 10.1 02:57:41 20° SSE 02:57:41 20° SSE 03:01:04 10° SE visible
08 Oct 10.2 04:55:07 12° SW 04:56:54 13° SW 05:00:05 10° SSW visible
09 Oct 10.4 02:26:55 17° SSE 02:26:55 17° SSE 02:28:53 10° SE visible
09 Oct 10.2 04:24:22 16° SW 04:24:22 16° SW 04:28:44 10° S visible
10 Oct 10.7 01:56:13 11° SE 01:56:13 11° SE 01:56:38 10° SE visible
10 Oct 10.2 03:53:40 17° SSW 03:53:40 17° SSW 03:57:04 10° S visible
11 Oct 10.3 03:23:03 16° S 03:23:03 16° S 03:25:12 10° SSE visible
12 Oct 10.6 02:52:30 12° SSE 02:52:30 12° SSE 02:53:12 10° SSE visible
